Probability
0 0 0 0 0 0 0 0 0 0 3 19 42 45 48 58 71 71 65 58 58 61 68 65 61 58 52 45 48 45 39 42 42 45 48 45 39 42 39 42 39 42 39 35
0 0 0 0 0 0 0 0 0 0 16 39 45 52 61 61 65 55 58 55 52 48 58 55 55 55 48 48 45 39 39 29 35 39 35 32 42 45 39 35 35 35 35 39
0 0 0 0 0 0 0 0 0 3 16 45 45 45 58 61 48 48 45 48 52 52 45 45 52 52 48 48 42 35 35 35 32 35 32 35 35 42 39 39 42 39 35 35
0 0 0 0 0 3 3 6 6 23 42 29 42 52 55 48 39 29 35 39 45 42 45 42 45 52 52 45 45 39 45 39 39 35 29 32 35 35 39 42 39 39 29 29
0 0 0 0 0 0 3 3 6 19 29 29 39 42 39 35 35 29 26 26 35 35 39 39 39 52 55 45 42 39 42 32 29 32 32 35 39 42 32 39 35 32 26 16
0 0 0 0 0 0 0 6 23 26 32 42 35 39 39 26 26 26 19 19 23 19 23 26 39 45 48 42 39 39 42 35 35 35 32 29 26 26 26 32 29 23 13 10
0 0 0 0 0 0 0 6 32 26 35 42 42 32 26 23 23 19 16 16 19 23 23 29 29 35 42 39 35 29 32 35 35 35 32 26 29 29 29 16 16 13 6 3
0 0 0 6 6 0 26 39 32 26 29 29 32 26 16 13 10 13 10 13 16 19 26 19 19 23 35 29 29 26 26 26 23 26 19 16 19 19 16 13 10 6 6 6
0 3 19 13 13 23 26 26 32 23 19 23 26 10 13 10 10 13 13 13 19 16 13 13 19 23 23 26 23 23 16 13 13 16 13 16 16 16 10 10 10 6 6 6
6 3 13 13 16 16 23 23 23 13 19 19 16 10 6 6 10 10 10 10 13 10 13 10 13 13 16 16 16 13 10 6 6 6 6 6 6 6 0 3 3 6 3 3
10 6 6 13 16 16 19 10 16 13 6 6 6 10 6 6 6 3 6 10 6 6 10 6 6 3 10 13 10 6 6 6 6 6 6 3 3 0 0 0 0 3 3 3
3 10 6 13 13 10 10 6 10 10 3 6 3 6 6 6 3 0 3 6 6 6 6 3 3 3 6 10 10 6 6 6 6 6 3 0 0 0 0 0 0 0 0 0
6 10 10 3 3 6 6 6 3 3 6 6 3 6 3 3 0 0 0 3 3 3 6 6 3 6 6 6 6 6 6 6 6 3 0 0 0 0 0 0 0 0 0 0
6 0 0 0 0 0 0 0 3 6 6 6 3 3 3 0 0 0 0 0 0 3 3 0 0 3 3 3 6 6 6 6 3 0 0 0 0 0 0 0 0 0 0 0
3 0 0 0 0 0 3 3 6 6 6 6 3 0 0 0 0 0 0 0 0 0 0 0 0 0 0 0 3 6 6 3 0 0 0 0 0 0 0 0 0 0 0 0
0 0 3 0 0 0 0 0 3 3 3 0 0 0 0 0 0 0 0 0 0 0 0 0 0 0 0 0 0 3 0 0 0 0 0 0 0 0 0 0 0 0 0 0
0 0 0 0 0 0 0 0 0 0 0 0 0 0 0 0 0 0 0 0 0 0 0 0 0 0 0 0 0 0 0 0 0 0 0 0 0 0 0 0 0 0 0 0
0 0 0 0 3 0 0 0 0 0 0 0 0 0 0 0 0 0 0 0 0 0 0 0 0 0 0 0 0 0 0 0 0 0 0 0 0 0 0 0 0 0 0 0
0 0 0 0 0 0 0 0 0 0 3 0 0 0 0 0 0 0 0 0 0 0 0 0 0 0 0 0 0 0 0 0 0 0 0 0 0 0 0 0 0 0 0 0
0 0 0 0 0 0 0 0 0 3 3 3 0 0 0 0 0 0 0 0 0 0 0 0 0 0 0 0 0 0 0 0 0 0 0 0 0 0 0 0 0 0 0 0
0 0 0 0 0 0 0 0 0 0 3 3 3 0 0 0 0 0 0 0 0 0 0 0 0 0 0 0 0 0 0 0 0 0 0 0 0 0 0 0 0 0 0 0
0 0 0 0 0 0 0 0 3 3 3 3 3 0 0 0 0 0 0 0 0 0 0 0 0 0 0 0 0 0 0 0 0 0 0 0 0 0 0 0 0 0 0 0
0 0 0 0 0 0 0 0 0 3 3 3 0 0 0 0 0 0 0 0 0 0 0 0 0 0 0 0 0 0 0 0 0 0 0 0 0 0 0 0 0 0 0 0
0 0 0 0 0 0 0 0 0 3 3 0 0 0 0 0 0 0 0 0 0 0 0 0 0 0 0 0 0 0 0 0 0 0 0 0 0 0 0 0 0 0 0 0
0 0 0 0 0 0 0 0 0 0 0 0 0 0 0 0 0 0 0 0 0 0 0 0 0 0 0 0 0 0 0 0 0 0 0 0 0 0 0 0 0 0 0 0
0 0 0 0 0 0 0 0 0 0 0 0 0 0 0 0 0 0 0 0 0 0 0 0 0 0 0 0 0 0 0 0 0 0 0 0 0 0 0 0 0 0 0 0
0 0 0 0 0 0 0 0 0 0 0 0 0 0 0 0 0 0 0 0 0 0 0 0 0 0 0 0 0 0 0 0 0 0 0 0 0 0 0 0 0 0 0 0
Height
5801 5804 5807 5810 5813 5816 5819 5823 5826 5828 5828 5829 5829 5830 5831 5831 5832 5832 5832 5832 5832 5832 5832 5832 5832 5832 5832 5832 5832 5832 5832 5832 5833 5833 5833 5833 5834 5834 5834 5834 5834 5835 5836 5837
5796 5799 5803 5806 5809 5812 5815 5818 5820 5822 5824 5824 5825 5825 5826 5827 5828 5828 5828 5828 5828 5829 5829 5829 5828 5828 5828 5828 5828 5828 5828 5829 5829 5829 5830 5830 5830 5830 5831 5831 5831 5831 5832 5833
5793 5796 5799 5802 5805 5808 5810 5813 5815 5817 5819 5819 5820 5821 5822 5823 5823 5824 5824 5824 5824 5824 5825 5825 5824 5824 5824 5824 5825 5825 5825 5825 5825 5825 5826 5826 5827 5827 5827 5827 5828 5828 5828 5828
5789 5792 5795 5800 5800 5803 5805 5808 5810 5811 5813 5814 5815 5816 5817 5818 5818 5819 5820 5820 5820 5820 5821 5821 5821 5820 5820 5821 5821 5821 5821 5821 5821 5822 5822 5823 5823 5824 5824 5824 5824 5825 5825 5824
5784 5787 5790 5793 5795 5798 5800 5802 5804 5806 5807 5808 5810 5811 5812 5812 5813 5814 5815 5815 5816 5816 5816 5816 5816 5817 5817 5817 5817 5817 5817 5817 5818 5818 5818 5819 5819 5820 5820 5820 5820 5820 5820 5820
5778 5782 5785 5788 5790 5793 5796 5797 5799 5800 5801 5803 5804 5806 5807 5807 5808 5809 5809 5810 5811 5811 5811 5812 5812 5812 5812 5812 5812 5812 5813 5813 5813 5813 5814 5814 5815 5815 5816 5816 5816 5816 5815 5815
5771 5775 5778 5780 5784 5787 5791 5792 5793 5794 5795 5797 5798 5800 5801 5801 5802 5803 5804 5805 5805 5806 5806 5806 5806 5807 5807 5807 5807 5808 5808 5808 5809 5809 5810 5810 5810 5811 5811 5811 5811 5811 5811 5810
5765 5769 5773 5774 5777 5781 5783 5785 5786 5788 5790 5791 5792 5793 5794 5795 5796 5797 5798 5799 5799 5800 5800 5801 5801 5802 5802 5802 5802 5803 5803 5804 5804 5805 5805 5805 5805 5806 5806 5806 5806 5806 5805 5805
5758 5762 5764 5767 5770 5773 5776 5778 5780 5782 5783 5785 5786 5787 5789 5790 5790 5791 5792 5793 5794 5794 5795 5795 5796 5796 5797 5797 5797 5798 5798 5799 5799 5800 5800 5800 5800 5801 5801 5801 5801 5800 5800 5799
5750 5753 5757 5760 5763 5766 5768 5771 5773 5775 5777 5778 5780 5781 5782 5783 5784 5785 5786 5787 5787 5788 5789 5789 5790 5790 5791 5792 5792 5792 5793 5794 5794 5794 5795 5795 5794 5795 5795 5795 5795 5794 5794 5793
5743 5746 5750 5753 5756 5759 5761 5764 5766 5768 5770 5772 5773 5775 5776 5777 5778 5779 5779 5780 5781 5782 5783 5783 5784 5785 5785 5786 5787 5787 5788 5789 5789 5789 5789 5789 5789 5789 5789 5789 5789 5788 5788 5787
5735 5739 5743 5746 5749 5752 5754 5757 5759 5761 5763 5765 5767 5768 5769 5770 5771 5772 5773 5774 5775 5775 5776 5777 5778 5778 5779 5780 5781 5782 5782 5783 5783 5784 5784 5783 5783 5783 5783 5783 5783 5782 5782 5781
5728 5732 5736 5739 5742 5745 5748 5750 5752 5754 5757 5758 5760 5761 5763 5764 5765 5766 5767 5768 5769 5769 5770 5771 5772 5772 5773 5774 5776 5777 5777 5778 5778 5778 5778 5778 5778 5778 5778 5777 5777 5776 5775 5774
5722 5725 5729 5732 5736 5738 5741 5744 5746 5748 5750 5752 5754 5755 5757 5758 5759 5760 5761 5762 5762 5763 5764 5765 5766 5767 5768 5769 5770 5771 5772 5773 5773 5773 5773 5773 5773 5772 5772 5771 5771 5770 5769 5768
5715 5719 5723 5726 5729 5732 5735 5737 5740 5742 5744 5746 5748 5749 5751 5752 5753 5754 5755 5756 5757 5758 5759 5760 5761 5762 5763 5764 5765 5766 5767 5767 5768 5768 5767 5767 5767 5767 5766 5765 5764 5763 5762 5760
5709 5713 5716 5720 5723 5726 5729 5732 5734 5737 5739 5741 5742 5744 5745 5746 5747 5748 5750 5751 5752 5753 5754 5755 5756 5757 5758 5759 5760 5761 5762 5762 5762 5762 5762 5762 5761 5761 5760 5759 5758 5757 5755 5753
5703 5707 5711 5714 5717 5721 5723 5726 5729 5731 5733 5735 5737 5738 5739 5740 5742 5743 5744 5746 5747 5748 5750 5751 5752 5753 5753 5755 5756 5756 5757 5757 5757 5757 5757 5756 5755 5755 5754 5753 5751 5749 5747 5745
5698 5702 5706 5709 5712 5715 5718 5721 5724 5726 5729 5731 5733 5734 5735 5736 5737 5738 5740 5741 5743 5744 5745 5746 5747 5748 5749 5750 5751 5751 5751 5751 5751 5751 5751 5750 5749 5748 5747 5745 5743 5742 5740 5737
5694 5698 5701 5705 5708 5711 5714 5717 5719 5722 5724 5726 5728 5730 5731 5732 5734 5735 5736 5738 5739 5740 5741 5742 5743 5744 5745 5745 5746 5746 5746 5746 5745 5745 5745 5743 5742 5741 5739 5738 5736 5734 5732 5729
5690 5694 5698 5701 5705 5708 5711 5713 5716 5719 5721 5723 5725 5726 5728 5729 5730 5732 5733 5734 5735 5736 5737 5738 5739 5740 5740 5740 5741 5741 5741 5740 5740 5739 5738 5737 5735 5733 5732 5730 5728 5726 5723 5721
5688 5692 5695 5699 5702 5705 5708 5711 5713 5716 5718 5720 5722 5723 5725 5726 5728 5729 5730 5731 5732 5733 5734 5734 5735 5736 5736 5736 5736 5735 5735 5734 5733 5732 5731 5729 5728 5726 5724 5722 5719 5717 5714 5712
5687 5690 5694 5697 5700 5703 5706 5708 5711 5713 5715 5717 5719 5720 5722 5723 5725 5726 5727 5728 5729 5729 5730 5731 5731 5731 5731 5731 5730 5729 5728 5727 5726 5725 5723 5721 5720 5718 5715 5713 5711 5708 5705 5702
5686 5689 5693 5696 5698 5701 5704 5706 5708 5710 5712 5714 5716 5718 5719 5720 5722 5723 5724 5725 5725 5726 5726 5726 5726 5726 5726 5725 5724 5723 5722 5720 5719 5717 5715 5713 5711 5709 5707 5704 5702 5699 5695 5692
5685 5688 5691 5694 5697 5700 5702 5704 5707 5709 5710 5712 5714 5716 5717 5718 5719 5720 5720 5721 5721 5722 5722 5721 5721 5721 5720 5719 5718 5716 5715 5713 5712 5710 5707 5705 5703 5700 5698 5695 5692 5689 5686 5683
5684 5687 5690 5693 5696 5698 5701 5703 5705 5707 5709 5710 5712 5713 5714 5715 5716 5717 5717 5717 5717 5717 5716 5716 5715 5715 5714 5712 5711 5709 5707 5706 5703 5701 5699 5696 5694 5691 5688 5686 5683 5680 5676 5673
5683 5687 5689 5692 5694 5697 5699 5701 5703 5705 5707 5708 5709 5711 5712 5712 5712 5713 5713 5713 5712 5712 5711 5710 5709 5708 5707 5705 5703 5701 5700 5697 5695 5692 5690 5687 5685 5682 5679 5677 5674 5671 5668 5664
5683 5685 5688 5690 5693 5695 5697 5699 5701 5703 5704 5706 5707 5708 5708 5708 5708 5708 5708 5708 5707 5706 5705 5704 5703 5701 5699 5698 5696 5694 5692 5689 5687 5684 5682 5679 5676 5674 5671 5668 5665 5662 5659 5656
Wind_Speed
23 21 20 20 20 19 19 17 16 16 17 17 16 16 15 15 15 14 14 14 14 14 14 14 13 13 14 13 13 14 14 15 15 15 15 15 16 15 15 17 18 18 19 20
24 23 22 21 21 20 20 19 18 17 18 18 17 16 16 17 16 16 15 15 14 15 15 15 14 14 14 14 14 14 15 15 15 16 15 16 15 14 14 14 15 17 18 19
23 23 22 23 22 22 21 19 18 18 18 17 17 18 18 18 18 17 17 17 16 15 15 16 16 15 15 15 15 15 16 15 15 15 15 15 15 15 14 15 15 16 18 19
23 24 24 23 22 21 21 21 19 18 18 18 18 18 18 18 19 19 18 18 17 16 16 16 17 16 16 16 16 16 15 16 16 16 16 15 15 16 16 17 17 17 17 17
25 24 25 25 23 21 21 21 20 20 19 20 19 19 19 20 20 20 20 19 19 18 17 17 17 18 17 17 17 16 16 15 16 17 18 17 16 16 17 17 18 18 19 19
27 26 26 26 23 22 21 22 21 20 20 20 20 21 20 20 21 21 21 21 21 20 19 19 19 19 19 19 18 18 17 16 17 17 18 18 18 18 18 19 19 20 20 20
29 27 27 27 24 23 24 23 21 21 21 21 21 22 21 21 22 22 22 22 21 21 21 20 20 20 19 19 19 19 18 17 17 17 18 19 19 19 19 19 19 20 20 20
29 28 29 27 25 26 25 23 23 22 22 22 22 22 22 22 22 22 22 21 21 22 21 21 20 20 19 19 19 19 19 19 18 18 19 19 19 19 19 19 20 20 21 21
31 30 29 27 27 27 26 26 24 23 23 23 23 23 22 22 22 22 22 22 22 22 22 21 21 20 20 19 19 20 19 19 19 18 19 20 20 20 20 21 21 22 22 22
30 30 29 28 27 28 27 26 25 24 24 24 23 23 23 22 22 22 23 23 22 22 21 21 21 20 20 20 20 19 20 20 19 19 19 20 20 21 22 22 23 23 23 23
29 29 28 28 28 28 28 27 26 26 25 24 24 24 23 23 23 22 22 22 22 22 22 21 21 21 21 20 19 19 19 19 20 20 21 21 21 21 21 22 22 22 22 23
30 29 28 28 27 26 26 26 26 25 25 25 24 23 23 23 23 23 22 22 21 21 21 21 21 22 21 20 20 19 19 19 20 20 20 20 20 19 20 20 21 21 21 22
29 28 28 28 27 26 26 25 25 25 24 24 23 22 22 22 22 22 22 22 21 21 21 20 21 21 20 20 19 19 19 19 19 19 19 18 18 19 20 20 21 21 21 22
28 28 28 28 27 26 25 25 24 24 23 22 22 22 21 21 21 21 21 21 20 19 19 19 20 20 19 18 18 18 19 19 19 19 19 19 19 20 21 21 22 23 23 24
28 28 28 27 26 24 24 24 24 23 22 22 21 21 21 21 21 20 19 19 18 19 18 18 18 18 18 18 18 18 18 18 19 19 19 19 19 19 20 21 22 23 24 25
27 27 26 26 25 24 23 23 22 22 21 21 21 20 21 20 20 19 18 17 17 17 18 18 18 18 18 18 18 18 18 18 19 20 19 18 18 19 20 21 22 23 24 25
25 25 25 24 24 23 22 21 21 21 21 20 19 18 18 18 18 18 17 17 17 17 17 17 17 17 17 17 18 18 18 18 19 19 19 20 20 21 22 23 24 25 26 27
22 23 23 22 22 22 21 20 20 19 19 18 18 17 16 16 16 16 17 17 17 16 16 17 17 17 17 17 18 18 18 18 19 19 20 21 21 22 23 24 25 26 27 28
22 21 21 20 20 19 19 19 19 19 18 17 16 15 16 16 15 15 15 15 14 15 15 15 15 16 17 17 17 17 18 18 19 20 21 22 23 23 24 25 26 27 28 28
20 19 19 18 18 18 18 17 17 17 17 16 15 15 14 14 14 14 14 13 13 13 14 13 14 15 16 16 16 16 17 19 20 21 22 23 24 24 24 25 26 27 28 29
19 18 18 17 17 17 16 16 16 16 16 15 15 15 14 13 13 13 12 12 12 12 12 13 14 14 15 16 17 18 19 20 21 22 23 23 24 24 25 26 27 29 30 31
18 17 16 15 16 16 16 15 15 15 14 14 14 13 12 12 12 12 11 12 12 12 13 13 14 14 16 17 18 19 20 21 21 22 23 24 24 26 27 28 29 30 30 31
17 16 15 14 14 15 14 14 14 13 13 13 12 11 11 10 10 10 10 11 11 12 12 14 14 15 16 18 19 20 20 21 22 23 24 24 25 27 28 29 29 30 30 31
16 15 14 14 14 14 14 13 12 11 11 11 11 10 10 10 10 10 10 11 12 13 14 15 16 17 18 19 19 20 22 23 23 24 25 26 27 28 29 29 29 30 30 31
15 14 14 14 14 13 12 12 11 10 10 10 9 9 9 9 10 10 11 12 13 14 14 15 17 17 19 20 21 22 23 23 24 25 26 27 28 28 28 29 29 29 29 30
16 16 15 14 14 13 13 12 11 10 9 9 9 9 9 9 10 11 11 12 14 15 16 17 18 19 20 22 22 23 24 25 26 26 27 27 27 27 28 28 27 27 27 27
15 15 14 14 13 12 12 12 11 10 9 9 9 10 10 11 11 13 14 15 15 16 17 19 20 21 21 22 23 24 25 25 26 26 26 26 26 26 27 26 26 26 25 25
Wind_Direction
212 218 223 223 224 224 225 225 231 238 239 243 245 246 247 249 253 256 257 257 258 260 260 261 267 270 271 270 265 262 260 260 262 263 261 259 258 257 257 251 247 247 246 245
216 218 220 223 223 224 226 228 231 237 242 244 247 246 248 251 254 256 258 260 258 257 258 262 267 270 269 269 268 266 263 261 261 261 259 260 255 252 254 254 254 254 251 249
219 220 222 226 226 227 230 231 234 238 241 244 246 247 248 250 253 256 259 261 261 258 259 263 268 271 269 268 266 266 264 263 261 261 257 255 253 252 254 254 255 257 256 256
220 222 224 227 227 230 233 234 236 239 241 243 246 245 246 249 252 255 258 260 262 261 261 265 268 269 269 267 265 266 263 259 259 258 257 258 255 253 255 256 255 256 260 261
223 227 229 230 230 231 234 237 240 243 244 245 246 247 249 251 253 255 256 257 260 262 265 268 267 267 267 267 264 264 265 263 262 259 256 256 256 256 258 259 257 257 260 262
226 226 231 236 232 233 237 241 241 245 245 246 246 248 250 251 252 255 257 258 259 262 266 268 266 265 265 265 264 262 263 263 262 260 256 255 257 258 260 262 262 260 260 261
228 229 232 235 234 235 238 241 243 247 247 247 248 250 251 252 254 257 258 259 260 262 265 265 265 264 263 263 262 261 261 261 259 260 260 258 258 260 262 264 263 262 263 266
227 229 235 236 236 236 240 244 246 247 248 248 250 251 253 255 256 258 257 257 259 261 263 263 263 262 261 262 261 260 260 261 261 261 261 260 259 260 260 261 263 264 265 268
227 231 236 238 238 239 241 244 246 246 246 248 250 250 254 257 257 256 257 258 259 260 261 261 261 260 259 261 261 259 259 261 264 263 261 260 260 261 261 263 265 267 268 269
229 232 237 239 239 238 239 241 243 245 248 249 250 251 255 256 255 256 259 259 258 258 258 259 259 260 259 260 260 258 258 259 261 262 262 262 262 261 261 264 267 270 271 273
230 232 235 237 237 237 238 240 243 247 249 249 250 251 254 255 255 256 257 257 257 257 258 258 258 258 259 258 257 258 258 259 261 261 262 264 265 265 265 267 269 272 273 275
230 232 235 235 235 237 239 242 246 248 248 247 248 250 252 253 254 255 256 257 257 257 257 256 256 256 256 255 255 254 255 258 260 261 263 266 268 269 270 270 271 272 274 276
226 229 232 233 235 237 239 242 244 246 246 245 246 248 250 251 254 255 254 256 256 256 254 253 252 252 251 251 251 252 255 258 261 262 264 266 270 271 271 272 273 274 277 279
225 228 231 233 235 237 239 240 240 241 242 243 245 247 248 250 252 253 253 253 254 252 251 251 250 251 250 250 251 253 256 260 263 265 267 267 269 271 274 276 276 278 280 281
224 226 229 231 232 234 236 236 236 237 239 242 243 246 248 251 252 252 252 252 249 247 249 251 251 249 250 250 251 255 258 262 264 266 268 269 270 273 275 277 278 279 280 282
222 224 227 227 229 231 232 232 231 234 238 241 242 245 248 249 249 249 248 247 246 247 249 251 251 250 249 249 253 257 260 263 265 266 267 269 273 275 277 280 282 284 286 289
220 222 223 223 225 227 226 227 230 232 233 235 240 242 243 244 244 243 243 242 241 244 248 249 249 250 250 252 255 258 261 263 266 266 268 271 273 275 279 282 284 287 289 291
215 217 218 219 222 223 221 220 220 223 226 232 236 237 239 239 239 240 239 241 244 246 248 250 249 250 251 255 258 260 262 265 268 269 273 274 276 280 283 285 288 290 292 295
211 212 214 215 215 215 216 218 220 222 224 226 230 234 237 237 239 240 239 242 244 246 249 252 251 253 257 260 261 262 263 267 271 273 277 278 280 283 286 288 290 292 293 295
203 206 208 208 209 211 214 216 217 219 222 225 229 231 233 234 235 237 238 238 243 247 249 252 255 258 261 263 264 266 270 273 275 277 280 282 285 287 288 290 292 293 295 296
198 200 203 206 206 207 209 212 214 215 218 222 227 230 231 232 234 236 237 239 244 249 253 255 258 262 264 267 269 272 276 279 281 282 284 285 287 288 290 292 293 295 296 296
194 194 198 199 201 205 210 213 213 213 216 220 224 227 228 228 230 233 240 245 249 254 257 259 262 266 270 274 277 278 281 283 284 285 287 288 290 292 293 294 295 296 297 297
191 192 194 195 198 202 207 210 209 208 210 213 215 217 220 225 230 237 245 251 256 259 262 266 270 275 279 281 282 283 285 286 288 289 291 292 292 294 295 295 297 298 299 299
190 193 194 194 194 198 201 203 203 206 206 206 209 216 224 232 238 244 252 258 264 267 269 272 277 280 282 284 286 287 288 289 290 291 293 294 295 296 297 297 298 299 300 301
186 189 190 190 192 194 198 201 203 204 204 209 217 226 237 245 251 257 263 269 273 276 279 281 282 283 286 289 289 290 291 292 294 296 296 297 297 298 298 299 299 301 302 302
187 188 189 193 197 200 203 205 207 210 215 221 227 235 247 256 263 268 273 278 281 283 284 287 289 290 291 292 293 294 295 296 297 297 298 300 300 300 300 300 301 302 302 303
189 191 195 197 197 201 206 210 214 218 225 232 242 251 259 266 272 277 280 283 286 288 292 293 294 295 296 297 297 298 299 299 299 300 300 301 301 300 300 301 301 302 303 303